This demonstration page uses our WeatherBlox Daily Observations layout. Learn more.

Left ArrowRight Arrow

39.12711, -84.51439

Hourly Observations for December 6, 2022

Temp ( °F °C ) Dew Point ( °F °C ) Humidity (%) Winds ( mph kmh ) Pressure ( in mb ) Visibility ( mi km ) Precip ( " mm )
12:22 am 00:22 Cloudy with Mist and Fog 44 6.7 43 6.1 96 96 W 3 6 29.99 1016 2 3 0.00 0.00
12:53 am 00:53 Cloudy with Mist and Fog 44 6.7 43 6.1 96 96 Calm 29.98 1015 2 3 0.00 0.00
1:33 am 01:33 Cloudy with Mist and Fog 44 6.7 44 6.7 100 100 Calm 29.97 1015 2 3 0.00 0.00
1:46 am 01:46 Cloudy with Mist and Fog 44 6.7 44 6.7 100 100 Calm 29.98 1015 2 3 0.00 0.00
1:53 am 01:53 Cloudy with Mist and Fog 44 6.7 44 6.7 100 100 Calm 29.98 1015 2 3 0.00 0.00
2:00 am 02:00 Cloudy with Mist and Fog 44 6.7 44 6.7 100 100 W 5 7 29.98 1015 2 2 0.00 0.00
2:53 am 02:53 Mostly Clear with Mist and Fog 44 6.7 43 6.1 96 96 Calm 29.99 1016 1 1 0.00 0.00
3:53 am 03:53 Mostly Clear with Fog 44 6.7 44 6.7 100 100 Calm 29.98 1015 1 1 0.00 0.00
4:00 am 04:00 Mostly Clear with Fog 44 6.7 44 6.7 100 100 Calm 29.99 1016 1 1 0.00 0.00
4:38 am 04:38 Mostly Clear with Fog 44 6.7 44 6.7 100 100 Calm 29.99 1016 1 1 0.00 0.00
4:54 am 04:54 Cloudy with Mist and Fog 45 7 45 7 100 100 Calm 29.99 1016 1 1 0.00 0.00
5:00 am 05:00 Cloudy with Mist and Fog 44 6.7 44 6.7 100 100 Calm 29.98 1015 1 1 0.00 0.00
5:21 am 05:21 Cloudy with Mist and Fog 44 6.7 44 6.7 100 100 Calm 29.99 1016 1 2 0.00 0.00
5:53 am 05:53 Cloudy with Mist and Fog 44 6.7 44 6.7 100 100 Calm 29.98 1015 1 2 0.00 0.00
6:12 am 06:12 Cloudy with Mist and Fog 44 6.7 44 6.7 100 100 Calm 29.99 1016 1 2 0.00 0.00
6:53 am 06:53 Cloudy with Mist and Fog 45 7.2 44 6.7 97 97 Calm 29.99 1016 2 2 0.00 0.00
7:23 am 07:23 Cloudy with Mist and Fog 45 7.2 45 7.2 100 100 Calm 30.00 1016 2 3 0.00 0.00
7:32 am 07:32 Cloudy with Mist and Fog 45 7.2 44 6.7 97 97 Calm 30.00 1016 2 3 0.00 0.00
7:53 am 07:53 Cloudy with Mist and Fog 45 7.2 45 7.2 100 100 Calm 30.00 1016 2 3 0.00 0.00
8:17 am 08:17 Cloudy with Mist and Fog 45 7.2 45 7.2 100 100 Calm 30.00 1016 1 2 0.00 0.00
8:53 am 08:53 Cloudy with Fog 46 7.8 46 7.8 100 100 Calm 30.01 1016 1 1 0.00 0.00
9:32 am 09:32 Cloudy with Mist and Fog 47 8.3 47 8.3 100 100 Calm 30.02 1017 1 2 0.01 0.13
9:53 am 09:53 Cloudy with Mist and Fog 47 8.3 46 7.8 97 97 Calm 30.01 1016 2 2 0.01 0.13
10:31 am 10:31 Cloudy with Fog 48 8.9 48 8.9 100 100 Calm 30.03 1017 1 1 0.00 0.00
10:39 am 10:39 Cloudy with Fog 48 8.9 48 8.9 100 100 Calm 30.03 1017 0 0 0.00 0.00
10:53 am 10:53 Partly Cloudy with Light Rain 49 9.4 48 8.9 97 97 Calm 30.01 1016 0 0 0.01 0.13
11:05 am 11:05 Cloudy with Light Rain 49 9.4 49 9.4 100 100 Calm 30.01 1016 1 1 0.01 0.13
11:20 am 11:20 Cloudy with Mist and Fog 49 9.4 49 9.4 100 100 NE 5 7 30.01 1016 1 2 0.01 0.13
11:53 am 11:53 Cloudy with Mist and Fog 50 10 49 9.4 96 96 Calm 30.00 1016 3 4 0.01 0.13
12:53 pm 12:53 Cloudy with Mist and Fog 51 10.6 50 10 96 96 Calm 29.98 1015 3 4 0.01 0.13
1:53 pm 13:53 Cloudy with Mist and Fog 52 11.1 51 10.6 97 97 Calm 29.97 1015 1 1 0.01 0.25
2:24 pm 14:24 Cloudy with Mist and Fog 52 11.1 52 11.1 100 100 Calm 29.98 1015 1 2 0.00 0.00
2:34 pm 14:34 Cloudy with Fog 52 11.1 51 10.6 97 97 Calm 29.98 1015 1 1 0.00 0.00
2:53 pm 14:53 Cloudy with Mist and Fog 52 11.1 52 11.1 100 100 Calm 29.98 1015 1 2 0.00 0.00
3:02 pm 15:02 Cloudy with Mist and Fog 52 11.1 52 11.1 100 100 Calm 29.98 1015 1 1 0.00 0.00
3:15 pm 15:15 Cloudy with Mist and Fog 52 11.1 52 11.1 100 100 Calm 30.00 1016 1 2 0.00 0.00
3:31 pm 15:31 Cloudy with Mist and Fog 52 11.1 52 11.1 100 100 Calm 30.00 1016 3 4 0.00 0.00
3:53 pm 15:53 Cloudy with Mist and Fog 53 11.7 52 11.1 96 96 Calm 30.00 1016 2 3 0.00 0.00
3:59 pm 15:59 Cloudy with Mist and Fog 53 11.7 52 11.1 96 96 Calm 30.00 1016 2 2 0.00 0.00
4:09 pm 16:09 Cloudy with Mist and Fog 52 11.1 52 11.1 100 100 Calm 30.01 1016 1 2 0.00 0.00
4:18 pm 16:18 Cloudy with Mist and Fog 52 11.1 52 11.1 100 100 Calm 30.01 1016 1 2 0.00 0.00
4:53 pm 16:53 Cloudy with Mist and Fog 52 11.1 52 11.1 100 100 Calm 30.01 1016 1 2 0.00 0.00
5:08 pm 17:08 Cloudy with Mist and Fog 52 11.1 52 11.1 100 100 Calm 30.01 1016 2 2 0.00 0.00
5:53 pm 17:53 Cloudy with Light Rain 51 10.6 51 10.6 100 100 SW 3 6 30.02 1017 2 3 0.01 0.13
6:27 pm 18:27 Cloudy with Light Rain 51 10.6 51 10.6 100 100 Calm 30.02 1016 2 3 0.10 2.54
6:35 pm 18:35 Cloudy with Mist and Fog 51 10.6 51 10.6 100 100 NW 3 6 30.03 1017 2 3 0.10 2.54
6:53 pm 18:53 Cloudy with Light Rain 52 11.1 52 11.1 100 100 Calm 30.03 1017 3 4 0.12 3.05
6:58 pm 18:58 Cloudy with Light Rain 52 11.1 52 11.1 100 100 Calm 30.03 1017 2 3 0.01 0.13
7:16 pm 19:16 Cloudy with Heavy Rain 51 10.6 51 10.6 100 100 W 5 7 30.05 1018 3 5 0.17 4.32
7:27 pm 19:27 Cloudy with Rain 52 11.1 52 11.1 100 100 Calm 30.03 1017 3 5 0.26 6.60
7:53 pm 19:53 Cloudy with Rain 52 11.1 52 11.1 100 100 Calm 30.02 1017 3 5 0.34 8.64
8:53 pm 20:53 Cloudy with Light Rain 54 12.2 54 12.2 100 100 N 5 7 30.01 1016 3 5 0.43 10.92
9:02 pm 21:02 Cloudy with Rain 53 11.7 53 11.7 100 100 Calm 30.00 1016 2 2 0.03 0.76
9:12 pm 21:12 Cloudy with Rain 53 11.7 53 11.7 100 100 Calm 30.00 1016 3 5 0.05 1.27
9:53 pm 21:53 Cloudy with Light Rain 53 11.7 53 11.7 100 100 Calm 30.00 1016 3 5 0.06 1.52
9:56 pm 21:56 Cloudy with Nearby Thunderstorms 53 11.7 53 11.7 100 100 Calm 30.00 1016 1 2 0.01 0.25
10:18 pm 22:18 Cloudy with Light Rain 53 11.7 53 11.7 100 100 WSW 3 6 30.00 1016 1 1 0.01 0.25
10:34 pm 22:34 Cloudy with Light Rain 53 11.7 53 11.7 100 100 Calm 30.00 1016 2 2 0.09 2.29
10:47 pm 22:47 Cloudy with Mist and Fog 54 12 54 12 100 100 Calm 30.00 1016 3 4 0.09 2.29
10:49 pm 22:49 Cloudy with Mist and Fog 54 12 54 12 100 100 NNW 3 6 30.00 1016 2 3 0.09 2.29
10:53 pm 22:53 Cloudy with Light Rain 53 11.7 53 11.7 100 100 NNW 3 6 29.99 1016 1 2 0.12 3.05
11:03 pm 23:03 Cloudy with Light Rain 54 12.2 53 11.7 97 97 NNW 7 11 30.01 1016 2 3 0.01 0.25
11:12 pm 23:12 Cloudy with Thunderstorms 56 13.3 56 13.3 100 100 NW 6 9 30.01 1016 3 5 0.03 0.76
11:20 pm 23:20 Cloudy with Thunderstorms 55 12.8 55 12.8 100 100 SE 5 7 30.01 1016 3 4 0.05 1.27
11:25 pm 23:25 Cloudy with Nearby Thunderstorms 54 12.2 54 12.2 100 100 Calm 30.01 1016 3 5 0.05 1.27
11:29 pm 23:29 Cloudy with Light Rain 54 12.2 54 12.2 100 100 Calm 30.01 1016 4 6 0.05 1.27
11:45 pm 23:45 Cloudy with Light Rain 55 12.8 54 12.2 96 96 Calm 30.01 1016 5 8 0.05 1.27
11:53 pm 23:53 Cloudy with Light Rain 55 12.8 54 12.2 96 96 NNW 3 6 30.01 1016 8 13 0.06 1.52
11:57 pm 23:57 Cloudy with Heavy Rain 55 12.8 54 12.2 96 96 NNW 3 6 30.01 1016 3 4 0.03 0.76

Powered by AerisWeather